| time (UTC) | temp F | wind direction | speed MPH | gust MPH | rain 1hr in | rain 24hr in | rain mn in | humidity % | barometer mb |
| 20260507101510 | 40 | 32 | 0.0 | 0.0 | 0.00 | 0.10 | 0.00 | 93 | 1012.4 |
| 20260507100010 | 39 | 32 | 0.0 | 0.0 | 0.00 | 0.12 | 0.00 | 93 | 1012.5 |
| 20260507094507 | 39 | 32 | 0.0 | 0.0 | 0.00 | 0.14 | 0.00 | 93 | 1012.4 |
| 20260507093007 | 39 | 32 | 0.0 | 0.0 | 0.00 | 0.17 | 0.00 | 93 | 1012.3 |
| 20260507091509 | 38 | 32 | 0.0 | 0.0 | 0.00 | 0.19 | 0.00 | 93 | 1012.5 |
| 20260507090010 | 38 | 32 | 0.0 | 0.0 | 0.00 | 0.23 | 0.00 | 92 | 1012.4 |
| 20260507084512 | 38 | 32 | 0.0 | 0.0 | 0.00 | 0.25 | 0.00 | 92 | 1012.3 |
| 20260507083010 | 39 | 32 | 0.0 | 2.0 | 0.00 | 0.28 | 0.00 | 92 | 1012.7 |
| 20260507081511 | 38 | 32 | 0.0 | 0.0 | 0.00 | 0.30 | 0.00 | 92 | 1012.5 |
| 20260507080010 | 39 | 32 | 0.0 | 0.0 | 0.00 | 0.31 | 0.00 | 92 | 1012.5 |
| 20260507074509 | 39 | 32 | 0.0 | 0.0 | 0.00 | 0.32 | 0.00 | 92 | 1012.6 |
| 20260507073030 | 39 | 32 | 0.0 | 0.0 | 0.00 | 0.33 | 0.00 | 92 | 1012.6 |
| 20260507071523 | 39 | 32 | 0.0 | 0.0 | 0.00 | 0.34 | 0.00 | 92 | 1012.4 |
| 20260507070022 | 40 | 32 | 0.0 | 0.0 | 0.00 | 0.36 | 0.00 | 92 | 1012.4 |
| 20260507064522 | 40 | 32 | 0.0 | 0.0 | 0.00 | 0.38 | 0.00 | 91 | 1012.7 |
| 20260507063017 | 41 | 32 | 0.0 | 0.0 | 0.00 | 0.41 | 0.00 | 91 | 1013.0 |
| 20260507061529 | 42 | 32 | 0.0 | 0.0 | 0.00 | 0.43 | 0.00 | 90 | 1013.0 |
| 20260507060024 | 42 | 32 | 0.0 | 0.0 | 0.00 | 0.45 | 0.00 | 90 | 1012.8 |
| 20260507054531 | 42 | 32 | 0.0 | 0.0 | 0.00 | 0.46 | 0.00 | 90 | 1013.0 |
| 20260507053022 | 43 | 32 | 0.0 | 0.0 | 0.00 | 0.48 | 0.00 | 90 | 1013.1 |
| 20260507051522 | 43 | 32 | 0.0 | 0.0 | 0.00 | 0.51 | 0.00 | 89 | 1013.2 |
| 20260507050024 | 43 | 32 | 0.0 | 0.0 | 0.00 | 0.54 | 0.00 | 88 | 1013.3 |
| 20260507044535 | 44 | 32 | 0.0 | 0.0 | 0.00 | 0.57 | 0.00 | 87 | 1013.5 |
| 20260507043026 | 44 | 32 | 0.0 | 0.0 | 0.00 | 0.58 | 0.00 | 87 | 1013.5 |
| 20260507041531 | 44 | 32 | 0.0 | 2.0 | 0.00 | 0.64 | 0.00 | 86 | 1013.4 |
| 20260507040025 | 44 | 32 | 0.0 | 0.0 | 0.00 | 0.67 | 0.00 | 86 | 1013.2 |
| 20260507034522 | 44 | 32 | 0.0 | 2.0 | 0.00 | 0.67 | 0.67 | 86 | 1013.2 |
| 20260507033020 | 44 | 32 | 0.0 | 0.0 | 0.00 | 0.69 | 0.67 | 87 | 1013.3 |
| 20260507031525 | 44 | 32 | 0.0 | 2.0 | 0.00 | 0.69 | 0.67 | 87 | 1013.4 |
| 20260507030027 | 44 | 32 | 0.0 | 2.0 | 0.00 | 0.71 | 0.67 | 86 | 1013.4 |
| 20260507024527 | 44 | 33 | 0.0 | 2.0 | 0.00 | 0.74 | 0.67 | 87 | 1013.3 |
| 20260507023025 | 45 | 33 | 0.0 | 2.0 | 0.00 | 0.77 | 0.67 | 87 | 1013.2 |
| 20260507021525 | 44 | 34 | 0.0 | 1.0 | 0.00 | 0.78 | 0.67 | 86 | 1013.2 |
| 20260507020004 | 44 | 34 | 0.0 | 2.0 | 0.00 | 0.78 | 0.67 | 86 | 1013.4 |
| 20260507014510 | 44 | 34 | 0.0 | 2.0 | 0.00 | 0.78 | 0.67 | 86 | 1013.7 |
| 20260507013006 | 44 | 34 | 0.0 | 0.0 | 0.00 | 0.79 | 0.67 | 86 | 1013.5 |
| 20260507011509 | 44 | 34 | 0.0 | 0.0 | 0.00 | 0.80 | 0.67 | 86 | 1013.3 |
| 20260507010003 | 44 | 34 | 0.0 | 0.0 | 0.00 | 0.81 | 0.67 | 86 | 1013.1 |
| 20260507004517 | 44 | 34 | 0.0 | 0.0 | 0.00 | 0.82 | 0.67 | 84 | 1013.0 |
| 20260507003005 | 45 | 34 | 0.0 | 2.0 | 0.00 | 0.84 | 0.67 | 85 | 1012.9 |
| 20260507001503 | 45 | 34 | 0.0 | 2.0 | 0.00 | 0.88 | 0.67 | 85 | 1012.8 |
| 20260507000011 | 45 | 34 | 0.0 | 2.0 | 0.00 | 0.90 | 0.67 | 84 | 1012.4 |
| 20260506234508 | 45 | 23 | 1.0 | 2.0 | 0.00 | 0.93 | 0.67 | 84 | 1012.5 |
| 20260506233006 | 45 | 23 | 0.0 | 2.0 | 0.00 | 0.95 | 0.67 | 84 | 1012.4 |
| 20260506231522 | 45 | 36 | 1.0 | 4.0 | 0.00 | 0.97 | 0.67 | 84 | 1012.4 |
| 20260506230008 | 46 | 22 | 0.0 | 2.0 | 0.00 | 0.98 | 0.67 | 85 | 1012.2 |
| 20260506224504 | 46 | 40 | 0.0 | 3.0 | 0.00 | 1.02 | 0.67 | 86 | 1012.1 |
| 20260506223009 | 45 | 30 | 2.0 | 6.0 | 0.00 | 1.04 | 0.67 | 85 | 1011.9 |
| 20260506221508 | 46 | 26 | 1.0 | 11.0 | 0.00 | 1.07 | 0.67 | 85 | 1011.5 |
| 20260506220010 | 46 | 44 | 3.0 | 9.0 | 0.00 | 1.11 | 0.67 | 86 | 1011.2 |
| 20260506214511 | 45 | 73 | 3.0 | 8.0 | 0.00 | 1.15 | 0.67 | 87 | 1011.1 |
| 20260506213008 | 45 | 300 | 4.0 | 10.0 | 0.00 | 1.21 | 0.67 | 87 | 1011.1 |
| 20260506211514 | 46 | 344 | 3.0 | 15.0 | 0.00 | 1.25 | 0.67 | 87 | 1010.9 |
| 20260506210007 | 49 | 9 | 4.0 | 13.0 | 0.00 | 1.31 | 0.67 | 84 | 1010.6 |
| 20260506204511 | 50 | 307 | 4.0 | 10.0 | 0.00 | 1.35 | 0.67 | 85 | 1010.3 |
| 20260506203014 | 51 | 298 | 5.0 | 17.0 | 0.00 | 1.37 | 0.67 | 81 | 1010.4 |
| 20260506201520 | 53 | 340 | 2.0 | 13.0 | 0.00 | 1.38 | 0.67 | 78 | 1010.2 |
| 20260506200011 | 53 | 336 | 7.0 | 12.0 | 0.00 | 1.38 | 0.67 | 76 | 1010.2 |
| 20260506194510 | 55 | 246 | 2.0 | 11.0 | 0.00 | 1.38 | 0.67 | 73 | 1010.0 |
| 20260506193009 | 55 | 285 | 3.0 | 11.0 | 0.00 | 1.38 | 0.67 | 77 | 1010.1 |
| 20260506191511 | 53 | 263 | 4.0 | 11.0 | 0.00 | 1.38 | 0.67 | 78 | 1010.0 |
| 20260506190010 | 52 | 349 | 1.0 | 8.0 | 0.00 | 1.38 | 0.67 | 79 | 1010.0 |
| 20260506184512 | 52 | 290 | 1.0 | 4.0 | 0.00 | 1.38 | 0.67 | 80 | 1009.7 |
| 20260506183014 | 51 | 298 | 1.0 | 2.0 | 0.00 | 1.38 | 0.67 | 81 | 1009.8 |
| 20260506181511 | 51 | 298 | 0.0 | 2.0 | 0.00 | 1.38 | 0.67 | 82 | 1009.8 |
| 20260506180013 | 50 | 9 | 0.0 | 2.0 | 0.00 | 1.38 | 0.67 | 84 | 1010.0 |
| 20260506174512 | 51 | 60 | 0.0 | 2.0 | 0.00 | 1.38 | 0.67 | 84 | 1010.0 |
| 20260506173012 | 51 | 60 | 1.0 | 2.0 | 0.00 | 1.38 | 0.67 | 85 | 1010.0 |
| 20260506171513 | 50 | 60 | 0.0 | 2.0 | 0.00 | 1.38 | 0.67 | 87 | 1010.0 |
| 20260506170005 | 49 | 60 | 0.0 | 2.0 | 0.00 | 1.38 | 0.67 | 85 | 1010.1 |
| 20260506164512 | 49 | 63 | 1.0 | 2.0 | 0.00 | 1.38 | 0.67 | 87 | 1009.9 |
| 20260506163011 | 49 | 63 | 0.0 | 2.0 | 0.00 | 1.38 | 0.67 | 90 | 1009.8 |
| 20260506161510 | 49 | 5 | 1.0 | 2.0 | 0.00 | 1.38 | 0.67 | 91 | 1009.8 |
| 20260506160010 | 49 | 83 | 1.0 | 2.0 | 0.00 | 1.38 | 0.67 | 89 | 1009.8 |
| 20260506154508 | 49 | 84 | 0.0 | 2.0 | 0.00 | 1.38 | 0.67 | 87 | 1009.8 |
| 20260506153007 | 48 | 88 | 2.0 | 4.0 | 0.00 | 1.38 | 0.67 | 86 | 1009.7 |
| 20260506151511 | 48 | 170 | 1.0 | 4.0 | 0.01 | 1.38 | 0.67 | 87 | 1009.6 |
| 20260506150009 | 48 | 134 | 2.0 | 4.0 | 0.01 | 1.38 | 0.67 | 89 | 1009.6 |
| 20260506144511 | 47 | 161 | 2.0 | 4.0 | 0.01 | 1.38 | 0.67 | 90 | 1009.3 |
| 20260506143022 | 47 | 115 | 2.0 | 4.0 | 0.01 | 1.38 | 0.67 | 91 | 1009.3 |
| 20260506141512 | 47 | 81 | 1.0 | 3.0 | 0.00 | 1.37 | 0.66 | 92 | 1009.3 |
| 20260506140012 | 46 | 107 | 1.0 | 3.0 | 0.00 | 1.37 | 0.66 | 92 | 1009.2 |
| 20260506134510 | 46 | 129 | 1.0 | 4.0 | 0.01 | 1.37 | 0.66 | 91 | 1008.9 |
| 20260506133012 | 46 | 135 | 1.0 | 4.0 | 0.01 | 1.37 | 0.66 | 91 | 1008.7 |
| 20260506131511 | 45 | 146 | 2.0 | 3.0 | 0.02 | 1.37 | 0.66 | 91 | 1008.9 |
| 20260506130021 | 45 | 118 | 1.0 | 3.0 | 0.03 | 1.37 | 0.66 | 91 | 1008.7 |
| 20260506124512 | 45 | 151 | 0.0 | 2.0 | 0.02 | 1.36 | 0.65 | 92 | 1008.5 |
| 20260506123010 | 45 | 144 | 2.0 | 4.0 | 0.03 | 1.36 | 0.65 | 91 | 1008.6 |
| 20260506121515 | 45 | 178 | 2.0 | 6.0 | 0.03 | 1.35 | 0.64 | 91 | 1008.4 |
| 20260506120010 | 45 | 128 | 2.0 | 6.0 | 0.03 | 1.34 | 0.63 | 92 | 1008.2 |
| 20260506114510 | 45 | 139 | 3.0 | 7.0 | 0.04 | 1.34 | 0.63 | 92 | 1008.2 |
| 20260506113018 | 46 | 173 | 5.0 | 8.0 | 0.04 | 1.33 | 0.62 | 93 | 1008.2 |
| 20260506111512 | 46 | 145 | 2.0 | 4.0 | 0.04 | 1.32 | 0.61 | 93 | 1008.1 |
| 20260506110011 | 46 | 118 | 0.0 | 4.0 | 0.05 | 1.31 | 0.60 | 93 | 1008.5 |
| 20260506104511 | 46 | 129 | 1.0 | 4.0 | 0.06 | 1.30 | 0.58 | 93 | 1008.1 |
| 20260506103011 | 46 | 119 | 0.0 | 3.0 | 0.08 | 1.29 | 0.58 | 93 | 1008.0 |